Regional Weather Roundup
Issued by NWS

Home | Current Version | Previous Version | Text Only | Print | Product List | Glossary Off
Versions: 1 2 3 4 5 6 7 8 9 10 11 12 13 14 15 16 17 18 19 20 21 22 23 24 25 26 27 28 29 30 31 32 33 34 35 36 37 38 39 40 41 42 43 44 45 46 47 48 49 50

000
ASUS45 KTFX 051910
RWRMT
MONTANA REGIONAL WEATHER ROUNDUP
NATIONAL WEATHER SERVICE GREAT FALLS MT
100 PM MDT SUN JUL 05 2015

NOTE: "FAIR" INDICATES FEW OR NO CLOUDS BELOW 12000 FEET WITH NO
SIGNIFICANT WEATHER AND/OR OBSTRUCTIONS TO VISIBILITY.

MTZ001>007-043-052000-
WEST OF THE DIVIDE

CITY           SKY/WX    TMP DP  RH WIND       PRES   REMARKS
KALISPELL      CLOUDY    63  42  46 NE24      30.09R
MISSOULA       MOSUNNY   75  45  34 SE16G24   30.00S
BUTTE          CLOUDY    62  48  60 N3        30.12F
MULLAN PASS    MOSUNNY   66  48  52 VRB3      30.11R
DEER LODGE       N/A     64  48  55 CALM      30.12F
EUREKA           N/A     70  41  35 NE6       30.10F
HAMILTON         N/A     75  50  41 VRB7      29.96F
LIBBY            N/A     66  45  45 NW6       30.08R
PLAINS           N/A     77  49  37 E1        30.02S
RONAN            N/A     67  50  54 S10       30.08S
$$

MTZ008-052>055-052000-
SOUTHWEST MONTANA

CITY           SKY/WX    TMP DP  RH WIND       PRES   REMARKS
BOZEMAN        CLOUDY    64  52  64 NW8       30.09S
DILLON         PTSUNNY   70  50  49 NE17      30.05F
W YELLOWSTONE  CLOUDY    64  50  59 SW12G21   30.15S
THREE FORKS      N/A     65  60  83 N8        30.08F
TWIN BRIDGES     N/A     68  47  46 N24       30.04F
$$

MTZ009-010-012-014-046-048-049-054-052000-
EAST SLOPES AND CENTRAL MONTANA

CITY           SKY/WX    TMP DP  RH WIND       PRES   REMARKS
CUT BANK       CLOUDY    51  48  89 NW7       30.21R
GREAT FALLS    LGT RAIN  51  50  96 N10       30.17S
MALMSTROM AFB  SHOWER    51  51  98 N8        30.18S
HELENA         CLOUDY    59  47  64 N12       30.15S
CONRAD           N/A     52  52 100 NW7       30.21R
$$

MTZ011-013-016-021-045-047-050-051-052000-
NORTH CENTRAL MONTANA

CITY           SKY/WX    TMP DP  RH WIND       PRES   REMARKS
HAVRE          CLOUDY    59  54  83 MISG      30.15S
LEWISTOWN      CLOUDY    58  51  78 CALM      30.16R HAZE
CHINOOK          N/A     61  55  82 W9        30.14
FORT BENTON      N/A     55  52  88 N5        30.17F
$$

MTZ017>020-022>027-061-062-052000-
NORTHEAST MONTANA

CITY           SKY/WX    TMP DP  RH WIND       PRES   REMARKS
GLASGOW        MOSUNNY   71  45  39 N20       30.06R
JORDAN           N/A     67  51  56 N17       30.08R
SIDNEY         MOSUNNY   73  50  43 NW13      29.98S
WOLF POINT     MOSUNNY   75  49  39 N16       30.01R HAZE
PLENTYWOOD       N/A     68  46  45 N13       29.99R
POPLAR           N/A     72  52  49 N15G21      N/A
SCOBEY           N/A     68  46  45 N9        30.02S
$$

MTZ028>42-056>058-052000-
SOUTHCENTRAL AND SOUTHEAST MONTANA

CITY           SKY/WX    TMP DP  RH WIND       PRES   REMARKS
BAKER          CLOUDY    69  58  67 NW15G26   30.00R
BILLINGS       CLOUDY    62  48  60 NE9       30.13S
LIVINGSTON     CLOUDY    66  51  58 E18G24    30.10F HAZE
MILES CITY     CLOUDY    67  51  56 N13       30.03R
EKALAKA          N/A     66  56  70 NW16      30.00R
FORSYTH          N/A     68  48  49 N8        30.06R
LAUREL           N/A     62  47  58 N8        30.10S
ROUNDUP          N/A     64  45  50 N7        30.03S
$$

REGIONAL REPORTS...DAKOTAS

CITY           SKY/WX    TMP DP  RH WIND       PRES   REMARKS
WILLISTON      MOSUNNY   76  52  43 N16G24    29.97R HAZE
MINOT          PTSUNNY   75  62  64 NW17G24   29.87R HAZE
DICKINSON      CLOUDY    70  58  65 N15       29.93R
BEACH          MOCLDY    66  59  77 N16G23    29.98F
CROSBY         FAIR      72  55  56 NW17G28   29.96S
BISMARCK       MOSUNNY   78  64  61 N14       29.84R
GRAND FORKS    TSTM      66  66 100 S7        29.74R FOG
FARGO          CLOUDY    81  68  64 W7        29.76S
BUFFALO SD       N/A     77  60  55 N20       29.87R
RAPID CITY     CLOUDY    77  64  64 N17       29.90R
$$

REGIONAL REPORTS...WYOMING/IDAHO/WASHINGTON

CITY           SKY/WX    TMP DP  RH WIND       PRES   REMARKS
GILLETTE       CLOUDY    65  58  78 NW20      30.03S
SHERIDAN       CLOUDY    62  55  77 NW15      30.09R
BUFFALO WY     CLOUDY    60  54  80 NW15G30   30.12R
CODY           CLOUDY    57  52  82 N16       30.12R
YELLOWSTONE LA   N/A     59  48  67 VRB5      30.25S
IDAHO FALLS    CLOUDY    74  55  51 S17G23    30.05R
SALMON         PTSUNNY   84  45  24 N6        29.86F
BOISE          CLOUDY    83  51  33 N5        29.93R
SPOKANE        MOSUNNY   82  48  30 N15G23    29.91R
$$

REGIONAL REPORTS...ALBERTA

CITY           SKY/WX    TMP DP  RH WIND       PRES   REMARKS
EDMONTON       MOSUNNY   63  39  42 N12G29    30.17F
CALGARY        PTSUNNY   63  45  51 N14G24    30.21S
LETHBRIDGE     PTSUNNY   59  48  67 NW16      30.19S
MEDICINE HAT   CLOUDY    66  46  48 NW12G20   30.13S
WATERTON GATE    N/A     52  43  71 E3          N/A
CARDSTON         N/A     50  48  93 NW5         N/A
MILK RIVER       N/A     55  50  82 NW13        N/A
ONEFOUR          N/A     61  48  63 NW16        N/A
$$

REGIONAL REPORTS...SASKATCHEWAN

CITY           SKY/WX    TMP DP  RH WIND       PRES   REMARKS
SWIFT CURRENT  CLOUDY    63  46  55 NW13G22   30.07S
REGINA         CLOUDY    70  50  49 NW21G29   29.99R
SASKATOON      PTSUNNY   66  48  52 NW13G21   30.03S
CYPRESS HILLS    N/A     54  45  71 NW6         N/A
VAL MARIE        N/A     64  50  59 N15         N/A
ROCKGLEN         N/A     64  45  48 NW14G20     N/A
$$



USA.gov is the U.S. government's official web portal to all federal, state and local government web resources and services.